Back to Previous

Regional Weather Roundup

504 
ASUS44 KLZK 011005
RWRLZK

WEATHER ROUNDUP FOR ARKANSAS
NATIONAL WEATHER SERVICE LITTLE ROCK AR
500 AM CDT WED OCT 01 2014

NOTE: "FAIR" INDICATES FEW OR NO CLOUDS BELOW 12,000 FEET WITH NO
SIGNIFICANT WEATHER AND/OR OBSTRUCTIONS TO VISIBILITY.

ARZ001-003-010-029-011100-
NORTHWEST ARKANSAS
  
CITY           SKY/WX    TMP DP  RH WIND       PRES   REMARKS
FAYETTEVILLE   CLEAR     67  59  75 S7        29.84F                  
FORT SMITH     CLEAR     67  62  84 E9        29.82S                  
HARRISON       PTCLDY    62  59  90 SE6       29.88S                  
BENTONVILLE    CLEAR     64  57  77 SE3       29.85S                  
ROGERS         PTCLDY    66  59  78 SE6       29.86R                  
SILOAM SPGS    CLEAR     70  55  60 S6        29.85R                  
HIGHFILL       CLEAR     61  58  90 CALM      29.84R                  
$$

ARZ004-005-016-011100-
NORTH CENTRAL ARKANSAS
  
CITY           SKY/WX    TMP DP  RH WIND       PRES   REMARKS
BATESVILLE     CLEAR     59  54  82 CALM      29.88S                  
FLIPPIN        CLEAR     57  52  82 CALM      29.88R                  
MTN HOME       CLEAR     62  54  74 SE3       29.87S                  
$$

ARZ040-041-011100-
WEST CENTRAL ARKANSAS
  
CITY           SKY/WX    TMP DP  RH WIND       PRES   REMARKS
MENA             N/A     64  63  94 CALM      29.86F                  
MOUNT IDA      MOCLDY    65  63  93 CALM      29.85R FOG              
$$

ARZ009-017-025-026-028-011100-
NORTHEAST ARKANSAS
  
CITY           SKY/WX    TMP DP  RH WIND       PRES   REMARKS
CORNING          N/A     61  57  88 NE5       29.89S                  
JONESBORO      CLEAR     62  60  93 NE3       29.89R                  
NEWPORT        CLEAR     62  59  90 CALM      29.89S                  
WALNUT RIDGE   CLEAR     63  57  82 CALM      29.87R                  
BLYTHEVILLE    PTCLDY    67  61  81 S6        29.90R                  
$$

ARZ022-023-033-042-044-011100-
CENTRAL ARKANSAS
  
CITY           SKY/WX    TMP DP  RH WIND       PRES   REMARKS
LITTLE ROCK    MOCLDY    67  61  81 CALM      29.87R                  
N LITTLE ROCK    N/A     70  63  78 SE3       29.87R                  
JACKSONVILLE   PTCLDY    62  60  91 CALM      29.87R                  
SEARCY           N/A     61  58  90 CALM      29.89R                  
HOT SPRINGS    CLOUDY    70  63  78 CALM      29.87R                  
RUSSELLVILLE   CLEAR     63  60  90 CALM      29.85S                  
CLINTON        FAIR      59  57  94 CALM      29.89S FOG              
$$

ARZ036-011100-
EAST ARKANSAS
  
CITY           SKY/WX    TMP DP  RH WIND       PRES   REMARKS
WEST MEMPHIS   MOCLDY    66  63  90 CALM      29.88R                  
$$

ARZ050-053-066-070-073-011100-
SOUTHWEST ARKANSAS
  
CITY           SKY/WX    TMP DP  RH WIND       PRES   REMARKS
ARKADELPHIA    RAIN      72  71  96 NE5       29.86F FOG              
CAMDEN         MOCLDY    68  63  83 CALM      29.85R                  
TEXARKANA      CLEAR     73  69  87 S6        29.84R                  
EL DORADO      MOCLDY    74  68  81 S7        29.85S                  
DE QUEEN       MOCLDY    69  65  86 CALM      29.82S                  
$$

ARZ056-057-069-011100-
SOUTHEAST ARKANSAS
  
CITY           SKY/WX    TMP DP  RH WIND       PRES   REMARKS
PINE BLUFF     MOCLDY    67  62  84 E3        29.87R                  
STUTTGART      CLEAR    N/A N/A N/A SE6       29.87S                  
MONTICELLO     CLOUDY    71  64  78 SE5       29.87R                  

$$




USA.gov is the U.S. government's official web portal to all federal, state and local government web resources and services.